Location: Firnhaberau
(48.4049°N, 10.8963°E)
Time: 16:48:45
(UTC+00:00)

Tiangong - Pass Details

Date: 25 June 2021
Orbit: 373 x 386 km, 41.5° (Epoch: 02 August)

Event Time Altitude Azimuth Distance (km) Brightness Sun altitude
Exits shadow 00:59:20 13° 139° (SE) 1,229 3.4 -14.8°
Drops below altitude 10° 01:00:08 10° 126° (SE) 1,388 3.8 -14.7°
Sets 01:02:50 0° 101° (E) 2,246 5.1 -14.5°
